THOR ABLESTAR DEB *, 48812

Orbit data source: Space-Track

THOR ABLESTAR DEB *, 48812 is space debris in LEO originally from a launch on Thu, 29 Jun 1961 UTC launched from the Air Force Eastern Test Range (AFETR). Debris objects in space refer to the collection of defunct objects orbiting the Earth. Examples of debris include non-operational satellites, rocket bodies, and fragments generated from explosions, collisions, or faulty payload assembly.

Loading next visibility...
Identifier
48812, 1961-015MQ
Orbit
LEO
Country
Flag of USUS
Related business
Manufacturer
Unknown
Mission
Spacecraft
Bus & Motor
Unknown
Mass
Unknown
Launch date (UTC)
1961-06-29 (65 years ago)
Launch vehicle
Unknown
Launch site
Air Force Eastern Test Range (AFETR)
Object type
Payload
Rocket body
Debris
Shape & HBR
Unknown shape, 0.1 m
Radar Cross Section
Medium (>0.1 m² and <1 m²)

Expand to show TLE details & history
Last TLE update: 2 days ago

TLE from 2 days ago
0 THOR ABLESTAR DEB *
1 48812U 61015MQ  26171.23798341  .00000050  00000-0  56434-3 0  9990
2 48812  67.3133 168.3064 0351098   6.7932 353.7655 12.43833035573505
Epoch: 2026-06-20T05:42Z
TLE epoch observation values (Epoch: 2026-06-20T05:42:41.766Z)
Latitude
-0°
Longitude
174.17689°
Altitude
1,217.826 km
Speed
7.371 km/s
True Right ascension
11h 13m 13s
True Declination
0° 00' 00"
Sunlit
Object was in daylight at epoch
Visualization orbit readout
Latitude
Unknown
Longitude
Unknown
Altitude
Unknown
Speed
Unknown
Apparent Right ascension
Unknown
Apparent Declination
Unknown
Sunlit
N/A
Visualization observer readout
Local Sidereal Time
21:36:25
Azimuth
Unknown
Elevation
Unknown
Doppler factor
Unknown
Orbital elements
Apogee altitude
1,765.057 km
Perigee altitude
1,212.64 km
Semi-major axis
7,866.986 km
Eccentricity
0.03511
Inclination
67.3133°
RAAN
168.3064°
Arg. of periapsis
6.7932°
True anomaly
353.30869°
Mean anomaly
353.7655°
Eccentric anomaly
353.53914°
Mean motion
3.1105 °/min
Orbital period
115.74 mins
BSTAR
0.00056434
Loading maneuver chart data...
Computing Atmospheric mass density...

Documentation

Showing up to 5 results
|